Weather History for San Nicolas Island, CA

Change the Weather History Date:

Saturday, October 1, 2011

  Actual Average Record
Temperature  
Mean Temperature 67 °F -  
Max Temperature 75 °F 66 °F 111 °F (2012)
Min Temperature 59 °F 57 °F 53 °F (2001)
Cooling Degree Days 2    
Growing Degree Days 17 (Base 50)    
Moisture  
Dew Point 56 °F    
Average Humidity 76    
Maximum Humidity 93    
Minimum Humidity 50    
Precipitation  
Precipitation 0.00 in - - ()
Sea Level Pressure  
Sea Level Pressure 29.94 in    
Wind  
Wind Speed 18 mph (WNW)    
Max Wind Speed 23 mph    
Max Gust Speed 28 mph    
Visibility 9 miles    
Events      
Averages and records for this station are not official NWS values.
T = Trace of Precipitation, MM = Missing Value Source: NWS Daily Summary

Daily Weather History Graph

Daily Weather History Graph

Search for Another Location

Airport:

Trip Planner

Search our weather history database for the weather conditions in past years. The results will help you decide how hot, cold, wet, or windy it might be!

Date:

Astronomy

Oct. 01, 2011 Rise Set
Actual Time 6:51 AM PDT 6:42 PM PDT
Civil Twilight 6:27 AM PDT 7:07 PM PDT
Nautical Twilight 5:58 AM PDT 7:35 PM PDT
Astronomical Twilight 5:29 AM PDT 8:04 PM PDT
Moon 11:46 AM PDT (10/1) 10:02 PM PDT (10/1)
Length of Visible Light 12h 40m
Length of Day
11h 50m
Waxing Crescent, 25% of the Moon is Illuminated
Oct 1
Waxing Crescent
Oct 3
First Quarter
Oct 11
Full
Oct 19
Last Quarter
Oct 26
New

Hourly Weather History & Observations

Time (PDT) Temp. Dew Point Humidity Pressure Visibility Wind Dir Wind Speed Gust Speed Precip Events Conditions
12:53 AM 60.1 °F 57.0 °F 90% 29.94 in 10.0 mi North - - N/A   Clear
1:53 AM 60.1 °F 57.0 °F 90% 29.93 in 10.0 mi North - - N/A   Clear
2:53 AM 60.1 °F 57.0 °F 90% 29.92 in 10.0 mi North - - N/A   Clear
3:53 AM 59.0 °F 57.0 °F 93% 29.92 in 9.0 mi North - - N/A   Clear
4:53 AM 59.0 °F 57.0 °F 93% 29.93 in 9.0 mi North - - N/A   Clear
5:53 AM 59.0 °F 55.9 °F 90% 29.94 in 10.0 mi North - - N/A   Clear
6:53 AM 59.0 °F 55.9 °F 90% 29.94 in 9.0 mi North - - N/A   Clear
8:53 AM 64.0 °F 57.0 °F 78% 29.96 in 10.0 mi North - - N/A   Clear
9:53 AM 66.9 °F 55.9 °F 68% 29.97 in 10.0 mi North - - N/A   Clear
10:53 AM 70.0 °F 55.0 °F 59% 29.97 in 10.0 mi North - - N/A   Clear
11:53 AM 72.0 °F 54.0 °F 53% 29.96 in 10.0 mi North - - N/A   Clear
12:53 PM 75.0 °F 55.0 °F 50% 29.96 in 10.0 mi North - - N/A   Clear
1:35 PM 73.4 °F 55.4 °F 53% 29.97 in 7.0 mi West 17.3 mph - N/A   Clear
1:53 PM 73.0 °F 55.0 °F 53% 29.95 in 7.0 mi West 17.3 mph - N/A   Clear
2:53 PM 72.0 °F 55.0 °F 55% 29.94 in 7.0 mi WNW 17.3 mph - N/A   Clear
3:53 PM 70.0 °F 55.0 °F 59% 29.94 in 7.0 mi WNW 23.0 mph 27.6 mph N/A   Clear
4:53 PM 66.9 °F 55.0 °F 66% 29.92 in 10.0 mi North - - N/A   Clear
5:53 PM 64.0 °F 55.9 °F 75% 29.91 in 10.0 mi North - - N/A   Clear
6:53 PM 61.0 °F 55.9 °F 83% 29.92 in 10.0 mi North - - N/A   Clear
7:53 PM 61.0 °F 57.0 °F 87% 29.93 in 10.0 mi North - - N/A   Clear
8:53 PM 61.0 °F 57.0 °F 87% 29.94 in 10.0 mi North - - N/A   Clear
9:53 PM 61.0 °F 55.9 °F 83% 29.94 in 10.0 mi North - - N/A   Clear
10:53 PM 61.0 °F 55.9 °F 83% 29.95 in 10.0 mi North - - N/A   Clear
11:53 PM 61.0 °F 57.0 °F 87% 29.95 in 10.0 mi North - - N/A   Clear